Miscellaneous Local Product
Issued by NWS Hastings, NE

Home | Current Version | Previous Version | Text Only | Print | Product List | Glossary Off
Versions: 1 2 3 4 5 6 7 8 9 10 11 12 13 14 15 16 17 18 19 20 21 22 23 24 25 26 27 28 29 30 31 32 33 34 35 36 37 38 39 40 41 42 43 44 45 46 47 48 49 50

108
AXUS43 KGID 252302
MISGRI

GID CWA HOURLY WEATHER ROUNDUP
NATIONAL WEATHER SERVICE HASTINGS NE
600 PM CDT WED APR 25 2018

NOTE: "FAIR" INDICATES FEW OR NO CLOUDS BELOW 12,000 FEET WITH NO
SIGNIFICANT WEATHER AND/OR OBSTRUCTIONS TO VISIBILITY.

...SOUTH CENTRAL NEBRASKA...

CITY           SKY/WX    TMP DP  RH WIND       PRES   REMARKS
GRAND ISLAND   SUNNY     59  29  31 N5        30.10F
KEARNEY        SUNNY     58  31  35 NW7       30.11F
HASTINGS       SUNNY     57  32  38 CALM      30.10F
ORD            SUNNY     60  26  27 N3        30.07F
YORK             N/A     57  36  44 CALM      30.10F
AURORA         SUNNY     57  29  33 CALM      30.09F
LEXINGTON      SUNNY     61  30  31 N5        30.09F
HOLDREGE       SUNNY     57  32  38 NW6       30.10F
HEBRON         MOSUNNY   55  38  52 N3        30.12F

...NEBRASKA PANHANDLE...

CITY           SKY/WX    TMP DP  RH WIND       PRES   REMARKS
CHADRON        SUNNY     71  19  14 S14       29.94F
ALLIANCE       SUNNY     66  21  18 SW13      30.01F
SCOTTSBLUFF    SUNNY     70  24  17 SE8       29.99F
SIDNEY         SUNNY     66  23  19 SW9       30.05F

...WESTERN AND NORTH CENTRAL NEBRASKA...

CITY           SKY/WX    TMP DP  RH WIND       PRES   REMARKS
VALENTINE      PTSUNNY   66  22  18 S14G21    30.00F
AINSWORTH      MOSUNNY   61  24  24 S9        30.03F
ONEILL         SUNNY     62  27  26 S6        30.06F
BROKEN BOW     SUNNY     59  30  33 S5        30.07F
IMPERIAL       SUNNY     62  29  28 CALM      30.08F
NORTH PLATTE   SUNNY     63  31  30 SW8       30.07F
MCCOOK         SUNNY     62  33  33 NW7       30.09F

...EASTERN NEBRASKA...

CITY           SKY/WX    TMP DP  RH WIND       PRES   REMARKS
NORFOLK        SUNNY     59  30  33 NW6       30.07F
SO SIOUX CITY  SUNNY     62  32  32 NW3       30.06F
TEKAMAH        SUNNY     63  31  30 VRB6      30.06F
COLUMBUS       SUNNY     60  31  33 W3        30.09F
ALBION         SUNNY     59  26  27 NW3       30.08F
OMAHA EPPLEY   MOSUNNY   64  32  30 NW5       30.06F
MILLARD        SUNNY     62  35  36 NW8       30.07F
LINCOLN        SUNNY     58  31  35 CALM      30.11F
NEBRASKA CITY  MOSUNNY   53  42  67 NW6       30.09F
BEATRICE       CLOUDY    55  39  55 CALM      30.11F
FALLS CITY     CLOUDY    54  37  52 N9        30.09F

...NORTHERN KANSAS...

CITY           SKY/WX    TMP DP  RH WIND       PRES   REMARKS
GOODLAND       SUNNY     60  31  33 N7        30.11F
HILL CITY      SUNNY     60  36  40 NW5       30.12F
NORTON         CLEAR     61  34  36 NW3       30.10F
PHILLIPSBURG   SUNNY     61  30  31 N6        30.11F
SMITH CENTER   SUNNY     57  34  41 N3        30.13F
BELOIT         PTSUNNY   52  39  62 N7        30.13F
HAYS           MOSUNNY   58  35  42 N14       30.12F
RUSSELL        PTSUNNY   55  40  56 NE13      30.12F
CONCORDIA      CLOUDY    50  40  68 N8        30.12F
SALINA         CLOUDY    50  44  80 N15G21    30.13S
TOPEKA         LGT RAIN  50  49  96 N9        30.08S



USA.gov is the U.S. government's official web portal to all federal, state and local government web resources and services.